Time,TemperatureF,DewpointF,PressureIn,WindDirection,WindDirectionDegrees,WindSpeedMPH,WindSpeedGustMPH,Humidity,HourlyPrecipIn,Conditions,Clouds,dailyrainin,SoftwareType,DateUTC
2013-04-07 00:00:00,35.8,31.1,29.76,WNW,292,4.9,8.1,83,0.00,CLR,CLR,0.00,WeatherDisplay:10.37,2013-04-07 05:00:00,
2013-04-07 00:05:00,36.0,31.3,29.76,WNW,292,5.1,5.8,83,0.00,CLR,CLR,0.00,WeatherDisplay:10.37,2013-04-07 05:05:00,
2013-04-07 00:11:00,35.8,31.1,29.76,WNW,292,6.8,9.2,83,0.00,CLR,CLR,0.00,WeatherDisplay:10.37,2013-04-07 05:11:00,
2013-04-07 00:16:00,35.8,31.1,29.77,West,270,4.6,6.9,83,0.00,CLR,CLR,0.00,WeatherDisplay:10.37,2013-04-07 05:16:00,
2013-04-07 00:21:00,35.8,31.1,29.77,WNW,292,4.4,8.1,83,0.00,CLR,CLR,0.00,WeatherDisplay:10.37,2013-04-07 05:21:00,
2013-04-07 00:26:00,35.8,31.1,29.77,NW,315,2.4,3.5,83,0.00,CLR,CLR,0.00,WeatherDisplay:10.37,2013-04-07 05:26:00,
2013-04-07 00:31:00,35.8,31.4,29.78,WNW,292,4.3,5.8,84,0.00,CLR,CLR,0.00,WeatherDisplay:10.37,2013-04-07 05:31:00,
2013-04-07 00:36:00,35.8,31.4,29.78,West,270,5.4,8.1,84,0.00,CLR,CLR,0.00,WeatherDisplay:10.37,2013-04-07 05:36:00,
2013-04-07 00:41:00,35.6,31.2,29.78,WNW,292,2.8,6.5,84,0.00,CLR,CLR,0.00,WeatherDisplay:10.37,2013-04-07 05:41:00,
2013-04-07 00:47:00,35.4,31.1,29.78,WNW,292,3.9,5.8,84,0.00,CLR,CLR,0.00,WeatherDisplay:10.37,2013-04-07 05:47:00,
2013-04-07 00:52:00,35.4,31.1,29.78,West,270,5.5,5.8,84,0.00,CLR,CLR,0.00,WeatherDisplay:10.37,2013-04-07 05:52:00,
2013-04-07 00:57:00,35.4,31.1,29.78,NW,315,4.9,8.3,84,0.00,CLR,CLR,0.00,WeatherDisplay:10.37,2013-04-07 05:57:00,
2013-04-07 01:02:00,35.4,31.1,29.78,West,270,2.9,3.5,84,0.00,CLR,CLR,0.00,WeatherDisplay:10.37,2013-04-07 06:02:00,
2013-04-07 01:07:00,35.4,31.1,29.78,WNW,292,4.6,6.9,84,0.00,CLR,CLR,0.00,WeatherDisplay:10.37,2013-04-07 06:07:00,
2013-04-07 01:12:00,35.4,31.1,29.78,West,270,5.2,5.2,84,0.00,CLR,CLR,0.00,WeatherDisplay:10.37,2013-04-07 06:12:00,
2013-04-07 01:17:00,35.4,31.1,29.78,WNW,292,5.6,6.9,84,0.00,CLR,CLR,0.00,WeatherDisplay:10.37,2013-04-07 06:17:00,
2013-04-07 01:22:00,35.4,31.1,29.78,NW,315,7.0,10.4,84,0.00,CLR,CLR,0.00,WeatherDisplay:10.37,2013-04-07 06:22:00,
2013-04-07 01:28:00,35.4,31.1,29.78,WNW,292,5.5,8.1,84,0.00,CLR,CLR,0.00,WeatherDisplay:10.37,2013-04-07 06:28:00,
2013-04-07 01:33:00,35.4,31.1,29.78,West,270,5.1,8.1,84,0.00,CLR,CLR,0.00,WeatherDisplay:10.37,2013-04-07 06:33:00,
2013-04-07 01:38:00,35.4,31.1,29.78,West,270,4.5,8.1,84,0.00,CLR,CLR,0.00,WeatherDisplay:10.37,2013-04-07 06:38:00,
2013-04-07 01:43:00,35.4,31.1,29.78,West,270,7.3,8.1,84,0.00,CLR,CLR,0.00,WeatherDisplay:10.37,2013-04-07 06:43:00,
2013-04-07 01:48:00,35.4,31.1,29.79,NW,315,5.9,6.9,84,0.00,CLR,CLR,0.00,WeatherDisplay:10.37,2013-04-07 06:48:00,
2013-04-07 01:53:00,35.2,30.9,29.79,WNW,292,5.8,8.1,84,0.00,CLR,CLR,0.00,WeatherDisplay:10.37,2013-04-07 06:53:00,
2013-04-07 01:58:00,35.2,30.9,29.79,WNW,292,6.3,9.2,84,0.00,CLR,CLR,0.00,WeatherDisplay:10.37,2013-04-07 06:58:00,
2013-04-07 02:04:00,35.2,30.9,29.78,WNW,292,7.0,8.1,84,0.00,CLR,CLR,0.00,WeatherDisplay:10.37,2013-04-07 07:04:00,
2013-04-07 02:09:00,35.2,30.9,29.79,West,270,4.6,5.8,84,0.00,CLR,CLR,0.00,WeatherDisplay:10.37,2013-04-07 07:09:00,
2013-04-07 02:14:00,35.2,30.9,29.79,WNW,292,4.9,4.9,84,0.00,CLR,CLR,0.00,WeatherDisplay:10.37,2013-04-07 07:14:00,
2013-04-07 02:19:00,35.2,30.9,29.79,WNW,292,3.2,8.1,84,0.00,CLR,CLR,0.00,WeatherDisplay:10.37,2013-04-07 07:19:00,
2013-04-07 02:24:00,35.2,30.9,29.79,West,270,5.3,6.9,84,0.00,CLR,CLR,0.00,WeatherDisplay:10.37,2013-04-07 07:24:00,
2013-04-07 02:29:00,35.2,30.6,29.79,NW,315,5.8,9.2,83,0.00,CLR,CLR,0.00,WeatherDisplay:10.37,2013-04-07 07:29:00,
2013-04-07 02:34:00,35.2,30.6,29.78,WNW,292,6.6,7.2,83,0.00,CLR,CLR,0.00,WeatherDisplay:10.37,2013-04-07 07:34:00,
2013-04-07 02:39:00,35.2,30.6,29.79,WNW,292,4.2,6.9,83,0.00,CLR,CLR,0.00,WeatherDisplay:10.37,2013-04-07 07:39:00,
2013-04-07 02:45:00,35.1,30.4,29.79,WNW,292,5.3,9.2,83,0.00,CLR,CLR,0.00,WeatherDisplay:10.37,2013-04-07 07:45:00,
2013-04-07 02:50:00,34.9,30.2,29.79,WNW,292,4.5,9.2,83,0.00,CLR,CLR,0.00,WeatherDisplay:10.37,2013-04-07 07:50:00,
2013-04-07 02:55:00,34.9,30.2,29.79,WNW,292,3.6,8.1,83,0.00,CLR,CLR,0.00,WeatherDisplay:10.37,2013-04-07 07:55:00,
2013-04-07 03:00:00,34.9,30.2,29.79,WNW,292,4.7,6.9,83,0.00,CLR,CLR,0.00,WeatherDisplay:10.37,2013-04-07 08:00:00,
2013-04-07 03:05:00,34.9,30.2,29.79,WNW,292,6.2,6.9,83,0.00,CLR,CLR,0.00,WeatherDisplay:10.37,2013-04-07 08:05:00,
2013-04-07 03:10:00,34.9,30.2,29.79,NW,315,5.9,8.1,83,0.00,CLR,CLR,0.00,WeatherDisplay:10.37,2013-04-07 08:10:00,
2013-04-07 03:16:00,34.7,30.4,29.79,WNW,292,5.3,9.2,84,0.00,CLR,CLR,0.00,WeatherDisplay:10.37,2013-04-07 08:16:00,
2013-04-07 03:21:00,34.7,30.4,29.79,WNW,292,5.1,6.0,84,0.00,CLR,CLR,0.00,WeatherDisplay:10.37,2013-04-07 08:21:00,
2013-04-07 03:26:00,34.7,30.4,29.79,WSW,248,3.2,6.9,84,0.00,CLR,CLR,0.00,WeatherDisplay:10.37,2013-04-07 08:26:00,
2013-04-07 03:32:00,34.7,30.4,29.79,West,270,6.9,9.2,84,0.00,CLR,CLR,0.00,WeatherDisplay:10.37,2013-04-07 08:32:00,
2013-04-07 03:37:00,34.7,30.4,29.79,NW,315,4.7,9.2,84,0.00,CLR,CLR,0.00,WeatherDisplay:10.37,2013-04-07 08:37:00,
2013-04-07 03:42:00,34.5,29.9,29.79,West,270,5.6,8.1,83,0.00,CLR,CLR,0.00,WeatherDisplay:10.37,2013-04-07 08:42:00,
2013-04-07 03:47:00,34.7,30.1,29.80,WNW,292,8.0,10.4,83,0.00,CLR,CLR,0.00,WeatherDisplay:10.37,2013-04-07 08:47:00,
2013-04-07 03:52:00,34.7,30.1,29.79,WNW,292,6.7,10.4,83,0.00,CLR,CLR,0.00,WeatherDisplay:10.37,2013-04-07 08:52:00,
2013-04-07 03:58:00,34.7,30.1,29.80,West,270,4.6,8.1,83,0.00,CLR,CLR,0.00,WeatherDisplay:10.37,2013-04-07 08:58:00,
2013-04-07 04:03:00,34.7,30.1,29.80,NW,315,6.1,8.1,83,0.00,CLR,CLR,0.00,WeatherDisplay:10.37,2013-04-07 09:03:00,
2013-04-07 04:08:00,34.7,30.1,29.80,WNW,292,9.2,10.4,83,0.00,CLR,CLR,0.00,WeatherDisplay:10.37,2013-04-07 09:08:00,
2013-04-07 04:13:00,34.7,30.1,29.81,NW,315,4.4,8.3,83,0.00,CLR,CLR,0.00,WeatherDisplay:10.37,2013-04-07 09:13:00,
2013-04-07 04:18:00,34.7,29.8,29.81,West,270,3.6,4.6,82,0.00,CLR,CLR,0.00,WeatherDisplay:10.37,2013-04-07 09:18:00,
2013-04-07 04:24:00,34.7,29.8,29.81,WNW,292,6.4,8.1,82,0.00,CLR,CLR,0.00,WeatherDisplay:10.37,2013-04-07 09:24:00,
2013-04-07 04:29:00,34.7,29.8,29.81,West,270,4.5,6.9,82,0.00,CLR,CLR,0.00,WeatherDisplay:10.37,2013-04-07 09:29:00,
2013-04-07 04:34:00,34.7,29.8,29.82,WNW,292,3.3,6.5,82,0.00,CLR,CLR,0.00,WeatherDisplay:10.37,2013-04-07 09:34:00,
2013-04-07 04:39:00,34.7,29.8,29.82,WNW,292,4.6,6.9,82,0.00,CLR,CLR,0.00,WeatherDisplay:10.37,2013-04-07 09:39:00,
2013-04-07 04:46:00,34.5,29.6,29.82,WNW,292,6.3,8.1,82,0.00,CLR,CLR,0.00,WeatherDisplay:10.37,2013-04-07 09:46:00,
2013-04-07 04:51:00,34.5,29.6,29.82,WNW,292,5.0,6.9,82,0.00,CLR,CLR,0.00,WeatherDisplay:10.37,2013-04-07 09:51:00,
2013-04-07 04:56:00,34.5,29.6,29.82,NW,315,5.0,6.9,82,0.00,CLR,CLR,0.00,WeatherDisplay:10.37,2013-04-07 09:56:00,
2013-04-07 05:01:00,34.5,29.3,29.82,WNW,292,1.8,4.6,81,0.00,CLR,CLR,0.00,WeatherDisplay:10.37,2013-04-07 10:01:00,
2013-04-07 05:07:00,34.5,29.6,29.82,WNW,292,4.6,8.1,82,0.00,CLR,CLR,0.00,WeatherDisplay:10.37,2013-04-07 10:07:00,
2013-04-07 05:12:00,34.5,29.3,29.83,NW,315,6.2,8.1,81,0.00,CLR,CLR,0.00,WeatherDisplay:10.37,2013-04-07 10:12:00,
2013-04-07 05:18:00,34.5,29.3,29.83,WNW,292,2.8,3.5,81,0.00,CLR,CLR,0.00,WeatherDisplay:10.37,2013-04-07 10:18:00,
2013-04-07 05:23:00,34.5,29.3,29.83,WNW,292,2.6,3.5,81,0.00,CLR,CLR,0.00,WeatherDisplay:10.37,2013-04-07 10:23:00,
2013-04-07 05:28:00,34.5,29.3,29.84,WNW,292,4.5,6.9,81,0.00,CLR,CLR,0.00,WeatherDisplay:10.37,2013-04-07 10:28:00,
2013-04-07 05:33:00,34.5,29.3,29.84,NW,315,3.5,3.5,81,0.00,CLR,CLR,0.00,WeatherDisplay:10.37,2013-04-07 10:33:00,
2013-04-07 05:38:00,34.3,29.1,29.84,WNW,292,5.1,5.8,81,0.00,CLR,CLR,0.00,WeatherDisplay:10.37,2013-04-07 10:38:00,
2013-04-07 05:43:00,34.5,29.3,29.84,WNW,292,1.9,4.0,81,0.00,CLR,CLR,0.00,WeatherDisplay:10.37,2013-04-07 10:43:00,
2013-04-07 05:49:00,34.3,28.8,29.84,NW,315,6.5,9.2,80,0.00,CLR,CLR,0.00,WeatherDisplay:10.37,2013-04-07 10:49:00,
2013-04-07 05:54:00,34.5,29.0,29.84,West,270,3.1,4.6,80,0.00,CLR,CLR,0.00,WeatherDisplay:10.37,2013-04-07 10:54:00,
2013-04-07 05:59:00,34.3,28.8,29.84,WNW,292,7.7,10.4,80,0.00,CLR,CLR,0.00,WeatherDisplay:10.37,2013-04-07 10:59:00,
2013-04-07 06:04:00,34.3,28.5,29.84,NW,315,2.9,3.5,79,0.00,CLR,CLR,0.00,WeatherDisplay:10.37,2013-04-07 11:04:00,
2013-04-07 06:09:00,34.3,28.5,29.84,NW,315,5.7,8.1,79,0.00,CLR,CLR,0.00,WeatherDisplay:10.37,2013-04-07 11:09:00,
2013-04-07 06:14:00,34.3,28.5,29.85,WNW,292,3.3,4.6,79,0.00,CLR,CLR,0.00,WeatherDisplay:10.37,2013-04-07 11:14:00,
2013-04-07 06:20:00,34.3,28.5,29.85,West,270,6.1,6.9,79,0.00,CLR,CLR,0.00,WeatherDisplay:10.37,2013-04-07 11:20:00,
2013-04-07 06:25:00,34.3,28.5,29.85,West,270,3.1,4.6,79,0.00,CLR,CLR,0.00,WeatherDisplay:10.37,2013-04-07 11:25:00,
2013-04-07 06:30:00,34.3,28.5,29.85,West,270,2.5,3.5,79,0.00,CLR,CLR,0.00,WeatherDisplay:10.37,2013-04-07 11:30:00,
2013-04-07 06:35:00,34.3,28.5,29.85,WNW,292,4.8,5.8,79,0.00,CLR,CLR,0.00,WeatherDisplay:10.37,2013-04-07 11:35:00,
2013-04-07 06:40:00,34.3,28.5,29.85,WNW,292,3.2,4.6,79,0.00,CLR,CLR,0.00,WeatherDisplay:10.37,2013-04-07 11:40:00,
2013-04-07 06:45:00,34.2,28.3,29.85,NW,315,5.9,6.9,79,0.00,CLR,CLR,0.00,WeatherDisplay:10.37,2013-04-07 11:45:00,
2013-04-07 06:51:00,34.3,28.5,29.86,NW,315,3.6,4.6,79,0.00,CLR,CLR,0.00,WeatherDisplay:10.37,2013-04-07 11:51:00,
2013-04-07 06:56:00,34.2,28.3,29.86,WNW,292,2.3,3.5,79,0.00,CLR,CLR,0.00,WeatherDisplay:10.37,2013-04-07 11:56:00,
2013-04-07 07:02:00,34.2,28.3,29.87,WNW,292,4.6,5.8,79,0.00,CLR,CLR,0.00,WeatherDisplay:10.37,2013-04-07 12:02:00,
2013-04-07 07:07:00,34.2,28.3,29.87,NW,315,2.8,5.8,79,0.00,CLR,CLR,0.00,WeatherDisplay:10.37,2013-04-07 12:07:00,
2013-04-07 07:12:00,34.2,28.3,29.87,WNW,292,3.4,4.6,79,0.00,CLR,CLR,0.00,WeatherDisplay:10.37,2013-04-07 12:12:00,
2013-04-07 07:17:00,34.2,28.3,29.87,NW,315,2.2,2.3,79,0.00,CLR,CLR,0.00,WeatherDisplay:10.37,2013-04-07 12:17:00,
2013-04-07 07:22:00,34.2,28.0,29.87,North,0,4.3,5.8,78,0.00,CLR,CLR,0.00,WeatherDisplay:10.37,2013-04-07 12:22:00,
2013-04-07 07:27:00,34.2,28.0,29.87,WNW,292,4.4,5.8,78,0.00,CLR,CLR,0.00,WeatherDisplay:10.37,2013-04-07 12:27:00,
2013-04-07 07:32:00,34.2,28.0,29.87,WNW,292,2.5,3.5,78,0.00,CLR,CLR,0.00,WeatherDisplay:10.37,2013-04-07 12:32:00,
2013-04-07 07:38:00,34.3,28.2,29.87,NW,315,3.9,5.8,78,0.00,CLR,CLR,0.00,WeatherDisplay:10.37,2013-04-07 12:38:00,
2013-04-07 07:43:00,34.3,28.2,29.87,NW,315,3.5,5.8,78,0.00,CLR,CLR,0.00,WeatherDisplay:10.37,2013-04-07 12:43:00,
2013-04-07 07:48:00,34.5,28.4,29.88,NNW,338,5.0,6.9,78,0.00,CLR,CLR,0.00,WeatherDisplay:10.37,2013-04-07 12:48:00,
2013-04-07 07:53:00,34.5,28.1,29.88,NW,315,4.7,6.9,77,0.00,CLR,CLR,0.00,WeatherDisplay:10.37,2013-04-07 12:53:00,
2013-04-07 07:58:00,34.5,28.1,29.88,WNW,292,3.0,3.5,77,0.00,CLR,CLR,0.00,WeatherDisplay:10.37,2013-04-07 12:58:00,
2013-04-07 08:03:00,34.7,28.2,29.88,WNW,292,4.9,6.9,77,0.00,CLR,CLR,0.00,WeatherDisplay:10.37,2013-04-07 13:03:00,
2013-04-07 08:09:00,34.9,28.4,29.88,NNW,338,2.5,4.6,77,0.00,CLR,CLR,0.00,WeatherDisplay:10.37,2013-04-07 13:09:00,
2013-04-07 08:14:00,34.9,28.4,29.89,WNW,292,5.0,6.9,77,0.00,CLR,CLR,0.00,WeatherDisplay:10.37,2013-04-07 13:14:00,
2013-04-07 08:20:00,35.2,28.4,29.88,WNW,292,3.5,6.0,76,0.00,CLR,CLR,0.00,WeatherDisplay:10.37,2013-04-07 13:20:00,
2013-04-07 08:25:00,35.4,28.6,29.88,WNW,292,2.7,4.6,76,0.00,CLR,CLR,0.00,WeatherDisplay:10.37,2013-04-07 13:25:00,
2013-04-07 08:30:00,35.4,28.6,29.89,WNW,292,3.3,4.6,76,0.00,CLR,CLR,0.00,WeatherDisplay:10.37,2013-04-07 13:30:00,
2013-04-07 08:35:00,35.8,29.0,29.89,North,0,3.5,4.6,76,0.00,CLR,CLR,0.00,WeatherDisplay:10.37,2013-04-07 13:35:00,
2013-04-07 08:41:00,36.0,29.1,29.89,NNE,22,5.2,5.8,76,0.00,CLR,CLR,0.00,WeatherDisplay:10.37,2013-04-07 13:41:00,
2013-04-07 08:46:00,36.1,29.0,29.89,NNE,22,5.7,6.9,75,0.00,CLR,CLR,0.00,WeatherDisplay:10.37,2013-04-07 13:46:00,
2013-04-07 08:52:00,36.1,28.6,29.89,NNW,338,6.3,8.1,74,0.00,CLR,CLR,0.00,WeatherDisplay:10.37,2013-04-07 13:52:00,
2013-04-07 08:57:00,36.1,28.6,29.89,North,0,3.6,4.6,74,0.00,CLR,CLR,0.00,WeatherDisplay:10.37,2013-04-07 13:57:00,
2013-04-07 09:02:00,36.3,28.8,29.89,North,0,6.1,8.1,74,0.00,CLR,CLR,0.00,WeatherDisplay:10.37,2013-04-07 14:02:00,
2013-04-07 09:07:00,36.3,28.5,29.89,NNW,338,4.6,5.8,73,0.00,CLR,CLR,0.00,WeatherDisplay:10.37,2013-04-07 14:07:00,
2013-04-07 09:12:00,36.5,28.7,29.89,NNE,22,1.9,2.3,73,0.00,CLR,CLR,0.00,WeatherDisplay:10.37,2013-04-07 14:12:00,
2013-04-07 09:17:00,37.0,29.2,29.88,NNW,338,3.9,5.8,73,0.00,CLR,CLR,0.00,WeatherDisplay:10.37,2013-04-07 14:17:00,
2013-04-07 09:22:00,37.2,29.0,29.88,NNW,338,3.1,4.6,72,0.00,CLR,CLR,0.00,WeatherDisplay:10.37,2013-04-07 14:22:00,
2013-04-07 09:28:00,37.6,29.4,29.88,WNW,292,4.8,5.8,72,0.00,CLR,CLR,0.00,WeatherDisplay:10.37,2013-04-07 14:28:00,
2013-04-07 09:33:00,37.6,29.0,29.88,WNW,292,5.1,6.9,71,0.00,CLR,CLR,0.00,WeatherDisplay:10.37,2013-04-07 14:33:00,
2013-04-07 09:38:00,37.6,29.0,29.89,WNW,292,2.8,3.5,71,0.00,CLR,CLR,0.00,WeatherDisplay:10.37,2013-04-07 14:38:00,
2013-04-07 09:43:00,37.6,28.7,29.89,WNW,292,3.1,4.6,70,0.00,CLR,CLR,0.00,WeatherDisplay:10.37,2013-04-07 14:43:00,
2013-04-07 09:48:00,37.4,28.9,29.88,West,270,0.8,3.5,71,0.00,CLR,CLR,0.00,WeatherDisplay:10.37,2013-04-07 14:48:00,
2013-04-07 09:53:00,37.9,29.4,29.89,West,270,0.8,1.2,71,0.00,CLR,CLR,0.00,WeatherDisplay:10.37,2013-04-07 14:53:00,
2013-04-07 09:58:00,38.3,29.4,29.89,West,270,2.6,3.5,70,0.00,CLR,CLR,0.00,WeatherDisplay:10.37,2013-04-07 14:58:00,
2013-04-07 10:03:00,38.7,29.4,29.90,WNW,292,3.0,4.6,69,0.00,CLR,CLR,0.00,WeatherDisplay:10.37,2013-04-07 15:03:00,
2013-04-07 10:09:00,38.5,29.2,29.90,NNE,22,3.5,6.9,69,0.00,CLR,CLR,0.00,WeatherDisplay:10.37,2013-04-07 15:09:00,
2013-04-07 10:14:00,38.5,29.5,29.90,NNW,338,2.6,3.5,70,0.00,CLR,CLR,0.00,WeatherDisplay:10.37,2013-04-07 15:14:00,
2013-04-07 10:19:00,38.8,29.5,29.90,West,270,1.8,3.5,69,0.00,CLR,CLR,0.00,WeatherDisplay:10.37,2013-04-07 15:19:00,
2013-04-07 10:24:00,39.0,29.3,29.90,West,270,0.6,1.2,68,0.00,CLR,CLR,0.00,WeatherDisplay:10.37,2013-04-07 15:24:00,
2013-04-07 10:30:00,39.0,29.7,29.90,South,180,2.0,3.5,69,0.00,CLR,CLR,0.00,WeatherDisplay:10.37,2013-04-07 15:30:00,
2013-04-07 10:35:00,39.9,30.6,29.90,SW,225,0.8,1.2,69,0.00,CLR,CLR,0.00,WeatherDisplay:10.37,2013-04-07 15:35:00,
2013-04-07 10:40:00,40.8,31.1,29.90,West,270,2.2,3.5,68,0.00,CLR,CLR,0.00,WeatherDisplay:10.37,2013-04-07 15:40:00,
2013-04-07 10:45:00,40.8,30.7,29.90,East,90,0.0,2.3,67,0.00,CLR,CLR,0.00,WeatherDisplay:10.37,2013-04-07 15:45:00,
2013-04-07 10:50:00,40.8,30.7,29.90,South,180,0.0,0.0,67,0.00,CLR,CLR,0.00,WeatherDisplay:10.37,2013-04-07 15:50:00,
2013-04-07 10:56:00,41.4,31.2,29.91,West,270,0.0,0.0,67,0.00,CLR,CLR,0.00,WeatherDisplay:10.37,2013-04-07 15:56:00,
2013-04-07 11:01:00,41.9,31.4,29.91,WNW,292,0.0,0.0,66,0.00,CLR,CLR,0.00,WeatherDisplay:10.37,2013-04-07 16:01:00,
2013-04-07 11:06:00,42.1,31.2,29.91,ESE,112,1.1,2.3,65,0.00,CLR,CLR,0.00,WeatherDisplay:10.37,2013-04-07 16:06:00,
2013-04-07 11:11:00,42.6,31.7,29.91,SSE,158,2.7,4.6,65,0.00,CLR,CLR,0.00,WeatherDisplay:10.37,2013-04-07 16:11:00,
2013-04-07 11:17:00,43.5,32.5,29.92,ESE,112,2.4,2.5,65,0.00,CLR,CLR,0.00,WeatherDisplay:10.37,2013-04-07 16:17:00,
2013-04-07 11:22:00,44.2,32.8,29.92,SSE,158,2.9,3.5,64,0.00,CLR,CLR,0.00,WeatherDisplay:10.37,2013-04-07 16:22:00,
2013-04-07 11:27:00,44.8,32.9,29.92,SSW,202,0.0,2.3,63,0.00,CLR,CLR,0.00,WeatherDisplay:10.37,2013-04-07 16:27:00,
2013-04-07 11:32:00,44.6,32.0,29.91,SE,135,0.0,0.0,61,0.00,CLR,CLR,0.00,WeatherDisplay:10.37,2013-04-07 16:32:00,
2013-04-07 11:37:00,45.1,32.9,29.92,ESE,112,0.3,1.3,62,0.00,CLR,CLR,0.00,WeatherDisplay:10.37,2013-04-07 16:37:00,
2013-04-07 11:43:00,45.9,33.2,29.92,ESE,112,2.9,3.5,61,0.00,CLR,CLR,0.00,WeatherDisplay:10.37,2013-04-07 16:43:00,
2013-04-07 11:48:00,46.8,33.6,29.92,SSE,158,2.3,3.5,60,0.00,CLR,CLR,0.00,WeatherDisplay:10.37,2013-04-07 16:48:00,
2013-04-07 11:53:00,47.5,33.9,29.91,South,180,3.5,4.6,59,0.00,CLR,CLR,0.00,WeatherDisplay:10.37,2013-04-07 16:53:00,
2013-04-07 11:59:00,48.0,33.9,29.91,SSE,158,1.8,3.5,58,0.00,CLR,CLR,0.00,WeatherDisplay:10.37,2013-04-07 16:59:00,
2013-04-07 12:04:00,48.2,34.1,29.91,SE,135,2.9,3.5,58,0.00,CLR,CLR,0.00,WeatherDisplay:10.37,2013-04-07 17:04:00,
2013-04-07 12:10:00,48.9,34.3,29.90,WSW,248,0.0,2.3,57,0.00,CLR,CLR,0.00,WeatherDisplay:10.37,2013-04-07 17:10:00,
2013-04-07 12:15:00,49.1,34.1,29.90,SSW,202,8.9,9.2,56,0.00,CLR,CLR,0.00,WeatherDisplay:10.37,2013-04-07 17:15:00,
2013-04-07 12:20:00,48.9,33.9,29.90,South,180,5.2,5.8,56,0.00,CLR,CLR,0.00,WeatherDisplay:10.37,2013-04-07 17:20:00,
2013-04-07 12:25:00,48.6,33.6,29.89,SSW,202,0.8,2.3,56,0.00,CLR,CLR,0.00,WeatherDisplay:10.37,2013-04-07 17:25:00,
2013-04-07 12:30:00,48.6,33.6,29.89,NNE,22,0.4,3.5,56,0.00,CLR,CLR,0.00,WeatherDisplay:10.37,2013-04-07 17:30:00,
2013-04-07 12:35:00,48.2,32.8,29.89,ENE,68,0.2,0.0,55,0.00,CLR,CLR,0.00,WeatherDisplay:10.37,2013-04-07 17:35:00,
2013-04-07 12:41:00,48.0,33.1,29.89,SE,135,2.7,6.3,56,0.00,CLR,CLR,0.00,WeatherDisplay:10.37,2013-04-07 17:41:00,
2013-04-07 12:46:00,48.7,34.2,29.89,SSE,158,7.0,10.4,57,0.00,CLR,CLR,0.00,WeatherDisplay:10.37,2013-04-07 17:46:00,
2013-04-07 12:52:00,49.6,34.6,29.89,West,270,4.1,8.1,56,0.00,CLR,CLR,0.00,WeatherDisplay:10.37,2013-04-07 17:52:00,
2013-04-07 12:57:00,50.2,34.2,29.89,ESE,112,5.4,6.9,54,0.00,CLR,CLR,0.00,WeatherDisplay:10.37,2013-04-07 17:57:00,
2013-04-07 13:02:00,50.2,34.6,29.88,SE,135,2.2,8.1,55,0.00,CLR,CLR,0.00,WeatherDisplay:10.37,2013-04-07 18:02:00,
2013-04-07 13:07:00,50.5,34.5,29.89,SE,135,4.6,5.8,54,0.00,CLR,CLR,0.00,WeatherDisplay:10.37,2013-04-07 18:07:00,
2013-04-07 13:13:00,50.5,34.5,29.89,East,90,2.7,3.5,54,0.00,CLR,CLR,0.00,WeatherDisplay:10.37,2013-04-07 18:13:00,
2013-04-07 13:18:00,50.2,33.7,29.89,ESE,112,4.5,6.0,53,0.00,CLR,CLR,0.00,WeatherDisplay:10.37,2013-04-07 18:18:00,
2013-04-07 13:24:00,49.1,32.7,29.89,SSW,202,7.6,9.2,53,0.00,CLR,CLR,0.00,WeatherDisplay:10.37,2013-04-07 18:24:00,
2013-04-07 13:30:00,49.6,34.6,29.89,South,180,2.5,5.8,56,0.00,CLR,CLR,0.00,WeatherDisplay:10.37,2013-04-07 18:30:00,
2013-04-07 13:35:00,50.2,34.2,29.88,East,90,4.3,4.3,54,0.00,CLR,CLR,0.00,WeatherDisplay:10.37,2013-04-07 18:35:00,
2013-04-07 13:40:00,49.8,32.9,29.88,East,90,5.3,6.9,52,0.00,CLR,CLR,0.00,WeatherDisplay:10.37,2013-04-07 18:40:00,
2013-04-07 13:45:00,48.9,33.0,29.88,East,90,5.5,9.2,54,0.00,CLR,CLR,0.00,WeatherDisplay:10.37,2013-04-07 18:45:00,
2013-04-07 13:51:00,49.5,34.0,29.88,East,90,6.3,9.2,55,0.00,CLR,CLR,0.00,WeatherDisplay:10.37,2013-04-07 18:51:00,
2013-04-07 13:56:00,50.2,35.1,29.87,SSE,158,5.0,8.5,56,0.00,CLR,CLR,0.00,WeatherDisplay:10.37,2013-04-07 18:56:00,
2013-04-07 14:01:00,51.1,35.5,29.87,ESE,112,5.2,9.8,55,0.00,CLR,CLR,0.00,WeatherDisplay:10.37,2013-04-07 19:01:00,
2013-04-07 14:06:00,51.1,34.5,29.87,ESE,112,4.7,8.1,53,0.00,CLR,CLR,0.00,WeatherDisplay:10.37,2013-04-07 19:06:00,
2013-04-07 14:12:00,51.1,34.5,29.87,SE,135,5.8,9.2,53,0.00,CLR,CLR,0.00,WeatherDisplay:10.37,2013-04-07 19:12:00,
2013-04-07 14:17:00,51.4,34.9,29.87,ENE,68,7.1,10.4,53,0.00,CLR,CLR,0.00,WeatherDisplay:10.37,2013-04-07 19:17:00,
2013-04-07 14:22:00,51.6,35.0,29.86,East,90,8.7,10.4,53,0.00,CLR,CLR,0.00,WeatherDisplay:10.37,2013-04-07 19:22:00,
2013-04-07 14:27:00,51.3,34.7,29.86,ESE,112,7.9,9.4,53,0.00,CLR,CLR,0.00,WeatherDisplay:10.37,2013-04-07 19:27:00,
2013-04-07 14:32:00,50.9,33.9,29.86,ESE,112,7.2,9.2,52,0.00,CLR,CLR,0.00,WeatherDisplay:10.37,2013-04-07 19:32:00,
2013-04-07 14:37:00,50.7,34.2,29.86,ESE,112,2.1,7.4,53,0.00,CLR,CLR,0.00,WeatherDisplay:10.37,2013-04-07 19:37:00,
2013-04-07 14:43:00,50.9,34.8,29.85,South,180,6.9,9.2,54,0.00,CLR,CLR,0.00,WeatherDisplay:10.37,2013-04-07 19:43:00,
2013-04-07 14:48:00,51.1,35.0,29.84,SE,135,6.5,10.4,54,0.00,CLR,CLR,0.00,WeatherDisplay:10.37,2013-04-07 19:48:00,
2013-04-07 14:53:00,51.8,35.2,29.85,SE,135,7.3,9.2,53,0.00,CLR,CLR,0.00,WeatherDisplay:10.37,2013-04-07 19:53:00,
2013-04-07 14:59:00,51.8,35.2,29.85,SE,135,3.9,4.6,53,0.00,CLR,CLR,0.00,WeatherDisplay:10.37,2013-04-07 19:59:00,
2013-04-07 15:04:00,52.2,35.5,29.85,SSE,158,5.2,9.2,53,0.00,CLR,CLR,0.00,WeatherDisplay:10.37,2013-04-07 20:04:00,
2013-04-07 15:10:00,52.2,35.1,29.85,SE,135,3.2,6.0,52,0.00,CLR,CLR,0.00,WeatherDisplay:10.37,2013-04-07 20:10:00,
2013-04-07 15:15:00,52.3,35.2,29.84,SSW,202,7.1,14.5,52,0.00,CLR,CLR,0.00,WeatherDisplay:10.37,2013-04-07 20:15:00,
2013-04-07 15:20:00,52.2,35.5,29.84,ESE,112,10.4,11.5,53,0.00,CLR,CLR,0.00,WeatherDisplay:10.37,2013-04-07 20:20:00,
2013-04-07 15:25:00,51.4,34.4,29.83,SE,135,7.0,9.2,52,0.00,CLR,CLR,0.00,WeatherDisplay:10.37,2013-04-07 20:25:00,
2013-04-07 15:30:00,51.3,34.7,29.83,SE,135,4.4,8.1,53,0.00,CLR,CLR,0.00,WeatherDisplay:10.37,2013-04-07 20:30:00,
2013-04-07 15:35:00,51.1,35.0,29.83,South,180,3.7,4.6,54,0.00,CLR,CLR,0.00,WeatherDisplay:10.37,2013-04-07 20:35:00,
2013-04-07 15:41:00,51.1,35.5,29.82,SE,135,3.4,5.8,55,0.00,CLR,CLR,0.00,WeatherDisplay:10.37,2013-04-07 20:41:00,
2013-04-07 15:46:00,51.4,35.3,29.82,SE,135,8.3,10.4,54,0.00,CLR,CLR,0.00,WeatherDisplay:10.37,2013-04-07 20:46:00,
2013-04-07 15:51:00,51.3,35.2,29.82,ESE,112,9.5,13.4,54,0.00,CLR,CLR,0.00,WeatherDisplay:10.37,2013-04-07 20:51:00,
2013-04-07 15:56:00,51.1,35.5,29.82,ESE,112,8.3,9.2,55,0.00,CLR,CLR,0.00,WeatherDisplay:10.37,2013-04-07 20:56:00,
2013-04-07 16:02:00,51.1,35.5,29.81,SE,135,4.3,6.9,55,0.00,CLR,CLR,0.00,WeatherDisplay:10.37,2013-04-07 21:02:00,
2013-04-07 16:07:00,51.1,35.5,29.81,SE,135,8.5,10.4,55,0.00,CLR,CLR,0.00,WeatherDisplay:10.37,2013-04-07 21:07:00,
2013-04-07 16:12:00,50.7,34.7,29.81,SE,135,6.0,6.9,54,0.00,CLR,CLR,0.00,WeatherDisplay:10.37,2013-04-07 21:12:00,
2013-04-07 16:17:00,50.7,35.1,29.81,ESE,112,7.5,10.4,55,0.00,CLR,CLR,0.00,WeatherDisplay:10.37,2013-04-07 21:17:00,
2013-04-07 16:23:00,50.7,35.1,29.81,ESE,112,8.3,9.2,55,0.00,CLR,CLR,0.00,WeatherDisplay:10.37,2013-04-07 21:23:00,
2013-04-07 16:28:00,50.7,34.7,29.81,ESE,112,8.6,9.2,54,0.00,CLR,CLR,0.00,WeatherDisplay:10.37,2013-04-07 21:28:00,
2013-04-07 16:33:00,50.7,34.7,29.80,SSE,158,9.6,12.7,54,0.00,CLR,CLR,0.00,WeatherDisplay:10.37,2013-04-07 21:33:00,
2013-04-07 16:38:00,50.4,34.8,29.80,ESE,112,10.8,16.1,55,0.00,CLR,CLR,0.00,WeatherDisplay:10.37,2013-04-07 21:38:00,
2013-04-07 16:43:00,50.2,35.1,29.80,SE,135,3.8,9.2,56,0.00,CLR,CLR,0.00,WeatherDisplay:10.37,2013-04-07 21:43:00,
2013-04-07 16:48:00,50.2,35.1,29.80,SSW,202,9.7,12.7,56,0.00,CLR,CLR,0.00,WeatherDisplay:10.37,2013-04-07 21:48:00,
2013-04-07 16:53:00,50.2,35.1,29.80,East,90,7.0,12.1,56,0.00,CLR,CLR,0.00,WeatherDisplay:10.37,2013-04-07 21:53:00,
2013-04-07 16:58:00,49.8,34.7,29.80,ESE,112,11.6,12.7,56,0.00,CLR,CLR,0.00,WeatherDisplay:10.37,2013-04-07 21:58:00,
2013-04-07 17:04:00,49.3,34.2,29.80,ESE,112,6.7,10.4,56,0.00,CLR,CLR,0.00,WeatherDisplay:10.37,2013-04-07 22:04:00,
2013-04-07 17:09:00,48.9,34.3,29.80,ENE,68,8.4,10.4,57,0.00,CLR,CLR,0.00,WeatherDisplay:10.37,2013-04-07 22:09:00,
2013-04-07 17:15:00,49.1,34.9,29.80,South,180,6.1,6.9,58,0.00,CLR,CLR,0.00,WeatherDisplay:10.37,2013-04-07 22:15:00,
2013-04-07 17:20:00,49.1,34.9,29.81,South,180,5.3,8.1,58,0.00,CLR,CLR,0.00,WeatherDisplay:10.37,2013-04-07 22:20:00,
2013-04-07 17:25:00,49.3,35.1,29.81,ESE,112,7.0,8.1,58,0.00,CLR,CLR,0.00,WeatherDisplay:10.37,2013-04-07 22:25:00,
2013-04-07 17:31:00,49.6,35.5,29.81,South,180,5.4,9.4,58,0.00,CLR,CLR,0.00,WeatherDisplay:10.37,2013-04-07 22:31:00,
2013-04-07 17:36:00,49.8,35.6,29.81,SE,135,5.0,5.0,58,0.00,CLR,CLR,0.00,WeatherDisplay:10.37,2013-04-07 22:36:00,
2013-04-07 17:41:00,50.0,35.8,29.80,SE,135,8.2,9.2,58,0.00,CLR,CLR,0.00,WeatherDisplay:10.37,2013-04-07 22:41:00,
2013-04-07 17:46:00,50.2,35.5,29.79,SSE,158,5.3,9.2,57,0.00,CLR,CLR,0.00,WeatherDisplay:10.37,2013-04-07 22:46:00,
2013-04-07 17:51:00,50.2,36.0,29.80,South,180,5.2,10.5,58,0.00,CLR,CLR,0.00,WeatherDisplay:10.37,2013-04-07 22:51:00,
2013-04-07 17:57:00,50.2,35.5,29.80,SSE,158,5.5,8.1,57,0.00,CLR,CLR,0.00,WeatherDisplay:10.37,2013-04-07 22:57:00,
2013-04-07 18:02:00,50.2,36.0,29.81,ESE,112,5.7,10.4,58,0.00,CLR,CLR,0.00,WeatherDisplay:10.37,2013-04-07 23:02:00,
2013-04-07 18:07:00,50.4,36.1,29.81,SSE,158,5.5,6.9,58,0.00,CLR,CLR,0.00,WeatherDisplay:10.37,2013-04-07 23:07:00,
2013-04-07 18:12:00,50.5,35.9,29.81,SSE,158,5.7,10.4,57,0.00,CLR,CLR,0.00,WeatherDisplay:10.37,2013-04-07 23:12:00,
2013-04-07 18:17:00,50.2,35.5,29.81,ESE,112,6.1,10.4,57,0.00,CLR,CLR,0.00,WeatherDisplay:10.37,2013-04-07 23:17:00,
2013-04-07 18:23:00,49.8,35.6,29.81,ESE,112,5.9,6.9,58,0.00,CLR,CLR,0.00,WeatherDisplay:10.37,2013-04-07 23:23:00,
2013-04-07 18:28:00,49.3,35.1,29.81,ESE,112,5.0,9.2,58,0.00,CLR,CLR,0.00,WeatherDisplay:10.37,2013-04-07 23:28:00,
2013-04-07 18:33:00,48.6,34.9,29.81,SSE,158,6.4,10.4,59,0.00,CLR,CLR,0.00,WeatherDisplay:10.37,2013-04-07 23:33:00,
2013-04-07 18:38:00,47.7,34.4,29.80,SSE,158,3.4,6.9,60,0.00,CLR,CLR,0.00,WeatherDisplay:10.37,2013-04-07 23:38:00,
2013-04-07 18:44:00,47.1,34.4,29.80,SE,135,7.2,9.2,61,0.00,CLR,CLR,0.00,WeatherDisplay:10.37,2013-04-07 23:44:00,
2013-04-07 18:49:00,46.6,34.2,29.80,SSE,158,3.7,5.8,62,0.00,CLR,CLR,0.00,WeatherDisplay:10.37,2013-04-07 23:49:00,
2013-04-07 18:54:00,46.2,33.9,29.80,SE,135,6.3,8.1,62,0.00,CLR,CLR,0.00,WeatherDisplay:10.37,2013-04-07 23:54:00,
2013-04-07 18:59:00,46.2,34.3,29.80,SSE,158,5.0,6.9,63,0.00,CLR,CLR,0.00,WeatherDisplay:10.37,2013-04-07 23:59:00,
2013-04-07 19:05:00,46.0,34.1,29.80,SE,135,3.1,3.5,63,0.00,CLR,CLR,0.00,WeatherDisplay:10.37,2013-04-08 00:05:00,
2013-04-07 19:10:00,45.7,34.2,29.80,SSE,158,3.0,3.6,64,0.00,CLR,CLR,0.00,WeatherDisplay:10.37,2013-04-08 00:10:00,
2013-04-07 19:15:00,45.5,34.4,29.80,SE,135,5.7,8.1,65,0.00,CLR,CLR,0.00,WeatherDisplay:10.37,2013-04-08 00:15:00,
2013-04-07 19:20:00,45.1,34.1,29.80,SSE,158,3.3,5.8,65,0.00,CLR,CLR,0.00,WeatherDisplay:10.37,2013-04-08 00:20:00,
2013-04-07 19:25:00,45.0,33.9,29.81,SSE,158,3.9,8.1,65,0.00,CLR,CLR,0.00,WeatherDisplay:10.37,2013-04-08 00:25:00,
2013-04-07 19:31:00,44.6,33.9,29.81,South,180,7.3,10.4,66,0.00,CLR,CLR,0.00,WeatherDisplay:10.37,2013-04-08 00:31:00,
2013-04-07 19:36:00,44.4,34.1,29.80,SE,135,4.1,5.8,67,0.00,CLR,CLR,0.00,WeatherDisplay:10.37,2013-04-08 00:36:00,
2013-04-07 19:41:00,44.4,34.1,29.81,SSE,158,4.2,9.2,67,0.00,CLR,CLR,0.00,WeatherDisplay:10.37,2013-04-08 00:41:00,
2013-04-07 19:46:00,44.2,34.3,29.80,SSE,158,1.9,4.9,68,0.00,CLR,CLR,0.00,WeatherDisplay:10.37,2013-04-08 00:46:00,
2013-04-07 19:52:00,44.1,34.2,29.80,SSE,158,4.3,6.9,68,0.00,CLR,CLR,0.00,WeatherDisplay:10.37,2013-04-08 00:52:00,
2013-04-07 19:57:00,43.9,34.4,29.80,SE,135,4.7,5.8,69,0.00,CLR,CLR,0.00,WeatherDisplay:10.37,2013-04-08 00:57:00,
2013-04-07 20:02:00,43.7,34.2,29.80,SSE,158,2.1,4.6,69,0.00,CLR,CLR,0.00,WeatherDisplay:10.37,2013-04-08 01:02:00,
2013-04-07 20:07:00,43.7,34.6,29.80,SE,135,2.2,3.5,70,0.00,CLR,CLR,0.00,WeatherDisplay:10.37,2013-04-08 01:07:00,
2013-04-07 20:12:00,43.5,34.4,29.80,South,180,1.9,3.5,70,0.00,CLR,CLR,0.00,WeatherDisplay:10.37,2013-04-08 01:12:00,
2013-04-07 20:18:00,43.5,34.4,29.79,South,180,3.3,5.8,70,0.00,CLR,CLR,0.00,WeatherDisplay:10.37,2013-04-08 01:18:00,
2013-04-07 20:23:00,43.5,34.4,29.79,SE,135,0.8,2.5,70,0.00,CLR,CLR,0.00,WeatherDisplay:10.37,2013-04-08 01:23:00,
2013-04-07 20:28:00,43.5,34.4,29.79,SSW,202,3.4,4.6,70,0.00,CLR,CLR,0.00,WeatherDisplay:10.37,2013-04-08 01:28:00,
2013-04-07 20:34:00,43.5,34.7,29.79,ESE,112,3.0,3.5,71,0.00,CLR,CLR,0.00,WeatherDisplay:10.37,2013-04-08 01:34:00,
2013-04-07 20:39:00,43.3,34.6,29.78,ESE,112,3.3,3.6,71,0.00,CLR,CLR,0.00,WeatherDisplay:10.37,2013-04-08 01:39:00,
2013-04-07 20:44:00,43.3,34.9,29.78,ESE,112,3.3,4.6,72,0.00,CLR,CLR,0.00,WeatherDisplay:10.37,2013-04-08 01:44:00,
2013-04-07 20:49:00,43.3,34.9,29.78,East,90,3.6,4.6,72,0.00,CLR,CLR,0.00,WeatherDisplay:10.37,2013-04-08 01:49:00,
2013-04-07 20:54:00,43.2,35.1,29.78,ESE,112,2.7,3.5,73,0.00,CLR,CLR,0.00,WeatherDisplay:10.37,2013-04-08 01:54:00,
2013-04-07 20:59:00,43.0,34.9,29.78,East,90,2.4,3.5,73,0.00,CLR,CLR,0.00,WeatherDisplay:10.37,2013-04-08 01:59:00,
2013-04-07 21:05:00,43.0,35.3,29.78,East,90,3.0,3.5,74,0.00,CLR,CLR,0.00,WeatherDisplay:10.37,2013-04-08 02:05:00,
2013-04-07 21:10:00,42.8,35.4,29.78,ESE,112,4.2,5.1,75,0.00,CLR,CLR,0.00,WeatherDisplay:10.37,2013-04-08 02:10:00,
2013-04-07 21:15:00,42.6,35.6,29.77,ENE,68,3.0,3.5,76,0.00,CLR,CLR,0.00,WeatherDisplay:10.37,2013-04-08 02:15:00,
2013-04-07 21:20:00,42.4,35.7,29.78,East,90,3.2,3.5,77,0.02,RA,RA,0.02,WeatherDisplay:10.37,2013-04-08 02:20:00,
2013-04-07 21:25:00,42.1,35.4,29.77,East,90,4.0,5.8,77,0.02,RA,RA,0.02,WeatherDisplay:10.37,2013-04-08 02:25:00,
2013-04-07 21:31:00,42.1,35.7,29.77,East,90,3.2,4.6,78,0.02,CLR,CLR,0.02,WeatherDisplay:10.37,2013-04-08 02:31:00,
2013-04-07 21:36:00,41.9,35.5,29.78,ESE,112,2.1,2.3,78,0.02,CLR,CLR,0.02,WeatherDisplay:10.37,2013-04-08 02:36:00,
2013-04-07 21:41:00,41.9,35.5,29.78,ESE,112,3.8,4.6,78,0.02,CLR,CLR,0.02,WeatherDisplay:10.37,2013-04-08 02:41:00,
2013-04-07 21:46:00,41.9,35.9,29.78,East,90,4.2,5.8,79,0.02,CLR,CLR,0.02,WeatherDisplay:10.37,2013-04-08 02:46:00,
2013-04-07 21:52:00,41.7,35.7,29.78,East,90,4.0,4.6,79,0.02,CLR,CLR,0.02,WeatherDisplay:10.37,2013-04-08 02:52:00,
2013-04-07 21:57:00,41.5,35.8,29.78,ESE,112,3.5,4.6,80,0.04,RA,RA,0.04,WeatherDisplay:10.37,2013-04-08 02:57:00,
2013-04-07 22:02:00,41.5,35.8,29.78,ESE,112,4.0,4.6,80,0.04,RA,RA,0.04,WeatherDisplay:10.37,2013-04-08 03:02:00,
2013-04-07 22:07:00,41.4,35.7,29.78,ESE,112,3.2,3.5,80,0.04,CLR,CLR,0.04,WeatherDisplay:10.37,2013-04-08 03:07:00,
2013-04-07 22:13:00,41.4,35.7,29.79,ESE,112,2.3,3.5,80,0.06,RA,RA,0.06,WeatherDisplay:10.37,2013-04-08 03:13:00,
2013-04-07 22:18:00,41.2,35.5,29.79,East,90,3.0,3.5,80,0.06,RA,RA,0.06,WeatherDisplay:10.37,2013-04-08 03:18:00,
2013-04-07 22:23:00,41.2,35.8,29.79,ESE,112,2.4,3.5,81,0.06,RA,RA,0.08,WeatherDisplay:10.37,2013-04-08 03:23:00,
2013-04-07 22:28:00,41.2,35.8,29.79,ESE,112,3.5,3.5,81,0.06,RA,RA,0.08,WeatherDisplay:10.37,2013-04-08 03:28:00,
2013-04-07 22:33:00,41.2,36.1,29.79,ESE,112,5.0,5.8,82,0.08,RA,RA,0.10,WeatherDisplay:10.37,2013-04-08 03:33:00,
2013-04-07 22:39:00,41.0,35.9,29.79,East,90,3.6,3.6,82,0.08,RA,RA,0.10,WeatherDisplay:10.37,2013-04-08 03:39:00,
2013-04-07 22:44:00,40.8,36.1,29.79,ESE,112,3.5,3.6,83,0.10,RA,RA,0.12,WeatherDisplay:10.37,2013-04-08 03:44:00,
2013-04-07 22:49:00,40.8,36.1,29.78,ENE,68,4.6,5.8,83,0.12,RA,RA,0.14,WeatherDisplay:10.37,2013-04-08 03:49:00,
2013-04-07 22:55:00,40.6,35.9,29.78,ESE,112,5.0,5.8,83,0.10,RA,RA,0.14,WeatherDisplay:10.37,2013-04-08 03:55:00,
2013-04-07 23:00:00,40.5,36.0,29.77,East,90,6.1,8.1,84,0.10,,,0.00,WeatherDisplay:10.37,2013-04-08 04:00:00,
2013-04-07 23:05:00,40.3,35.8,29.77,ENE,68,7.5,9.2,84,0.12,CLR,CLR,0.02,WeatherDisplay:10.37,2013-04-08 04:05:00,
2013-04-07 23:10:00,40.3,36.1,29.77,East,90,4.6,8.1,85,0.12,RA,RA,0.02,WeatherDisplay:10.37,2013-04-08 04:10:00,
2013-04-07 23:15:00,40.1,36.0,29.77,NNE,22,3.2,3.5,85,0.10,,,0.02,WeatherDisplay:10.37,2013-04-08 04:15:00,
2013-04-07 23:20:00,40.1,36.0,29.77,East,90,4.1,4.1,85,0.10,CLR,CLR,0.02,WeatherDisplay:10.37,2013-04-08 04:20:00,
2013-04-07 23:25:00,39.9,35.8,29.77,East,90,4.1,4.6,85,0.08,CLR,CLR,0.02,WeatherDisplay:10.37,2013-04-08 04:25:00,
2013-04-07 23:31:00,39.9,35.8,29.77,ESE,112,7.2,9.2,85,0.08,CLR,CLR,0.02,WeatherDisplay:10.37,2013-04-08 04:31:00,
2013-04-07 23:36:00,39.7,35.9,29.76,East,90,4.0,5.8,86,0.06,CLR,CLR,0.02,WeatherDisplay:10.37,2013-04-08 04:36:00,
2013-04-07 23:41:00,39.7,35.9,29.76,ESE,112,5.5,9.2,86,0.04,CLR,CLR,0.02,WeatherDisplay:10.37,2013-04-08 04:41:00,
2013-04-07 23:47:00,39.4,35.5,29.76,East,90,3.9,5.8,86,0.04,CLR,CLR,0.02,WeatherDisplay:10.37,2013-04-08 04:47:00,
2013-04-07 23:52:00,39.4,35.5,29.75,East,90,3.6,5.8,86,0.02,CLR,CLR,0.02,WeatherDisplay:10.37,2013-04-08 04:52:00,
2013-04-07 23:57:00,39.4,35.5,29.75,NNE,22,3.2,5.8,86,0.04,RA,RA,0.04,WeatherDisplay:10.37,2013-04-08 04:57:00,